Content
SEND FEEDBACK

Daily
Averages
Monthly
Summary
United States of America

JENSEN - NORTH, UTAH


Home > North America > United States > Utah
Elevation: 4923 feet     Latitude: 40 26N     Longitude: 109 18W

WEATHER
 
SELECT A DAY
Number of Records: 169,864;   Date Range: 1/1/95 - 11/21/14
 
SHARE

PRINT THIS DATA

[ ← Previous Day ]
WEATHER ALMANAC - JANUARY 31, 2013
[ Next Day → ]
[ °C ]   °F
Weather ElementAverageHighLow
Temperature22 °F36 °F (12:53 pm)9 °F (3:53 am)
Dewpoint14.3 °F21 °F (2:53 pm)6.1 °F (3:53 am)
Humidity73.6 %88 % (3:53 am)50 % (12:53 pm)
Barometer30.38 in30.45 in (7:53 pm)30.29 in (1:53 am)
Wind Speed2.7 mph6.9 mph (2:53 am)
Weather ElementAverage
Visibility10 mi
Wind DirectionSE (131.7 °)

Weather ElementTotal
Precipitation---
Heating Degree Days42.5 (Base 65)
Averaged from 23 records on January 31, 2013
WEATHER CONDITIONS BREAKOUT
WIND DIRECTION BREAKOUT
WEATHER BY HOUR - JANUARY 31, 2013
[ °C ]   °F
Local TimeTemperatureDewpointHumidityBarometerVisibilityWind DirectionWind SpeedGust SpeedPrecipitationEventsConditions
1:53 AM14.0 °F10.0 °F84 %30.29 in10.0 miNNW (330°)3.5 mphClear
2:53 AM12.9 °F9.0 °F84 %30.30 in10.0 miWest (280°)6.9 mphClear
3:53 AM9.0 °F6.1 °F88 %30.31 in10.0 miCalmClear
4:53 AM10.0 °F6.1 °F84 %30.35 in10.0 miNW (310°)5.8 mphClear
5:53 AM10.9 °F7.0 °F84 %30.36 in10.0 miWest (280°)6.9 mphClear
6:53 AM12.0 °F8.1 °F84 %30.40 in10.0 miWest (270°)6.9 mphClear
7:53 AM12.0 °F7.0 °F80 %30.43 in10.0 miWNW (300°)5.8 mphClear
8:53 AM19.9 °F14.0 °F78 %30.42 in10.0 miWest (280°)4.6 mphClear
9:53 AM24.1 °F16.0 °F71 %30.43 in10.0 miCalmClear
10:53 AM30.0 °F18.0 °F61 %30.43 in10.0 miCalmClear
11:53 AM33.1 °F19.0 °F56 %30.40 in10.0 miEast (90°)3.5 mphClear
12:53 PM36.0 °F19.0 °F50 %30.36 in10.0 miCalmClear
1:53 PM36.0 °F19.9 °F52 %30.35 in10.0 miNorth (10°)4.6 mphClear
2:53 PM34.0 °F21.0 °F59 %30.35 in10.0 miCalmScattered Clouds
3:53 PM34.0 °F21.0 °F59 %30.36 in10.0 miCalmClear
4:53 PM34.0 °F19.9 °F56 %30.36 in10.0 miCalmClear
5:53 PM28.0 °F19.0 °F69 %30.39 in10.0 miWest (260°)3.5 mphClear
6:53 PM23.0 °F17.1 °F78 %30.42 in10.0 miCalmClear
7:53 PM19.0 °F14.0 °F81 %30.45 in10.0 miCalmMostly Cloudy
8:53 PM21.9 °F17.1 °F82 %30.43 in10.0 miCalmOvercast
9:53 PM19.9 °F16.0 °F85 %30.41 in10.0 miCalmMostly Cloudy
10:53 PM17.1 °F12.9 °F84 %30.39 in9.0 miWest (270°)5.8 mphClear
11:53 PM15.1 °F10.9 °F84 %30.38 in10.0 miNorth (350°)4.6 mphClear
Hourly data recorded from KVEL, located miles away from Jensen - North, Utah







STORIES FROM OUR PARTNERS